,

(GMT )
St. Hubert

Weather History for EBSU - April, 2014

Change the Weather History Date:

Monday, April 28, 2014

  Actual Average Record
Temperature  
Mean Temperature 48 °F -  
Max Temperature 55 °F - - ()
Min Temperature 41 °F - - ()
Degree Days  
Heating Degree Days 17    
Moisture  
Dew Point 42 °F    
Average Humidity 77    
Maximum Humidity 96    
Minimum Humidity 43    
Precipitation  
Precipitation 0.04 in - - ()
Sea Level Pressure  
Sea Level Pressure 29.85 in    
Wind  
Wind Speed 3 mph ()    
Max Wind Speed 7 mph    
Max Gust Speed -    
Visibility 14.4 miles    
Events Rain    
T = Trace of Precipitation, MM = Missing Value Source: Averaged Metar Reports

Daily Weather History Graph

Daily Weather History Graph

Search for Another Location

Airport or City:

Trip Planner

Search our weather history database for the weather conditions in past years. The results will help you decide how hot, cold, wet, or windy it might be!

Date:

Astronomy

Apr. 28, 2014 Rise Set
Actual Time 6:20 AM CEST 8:52 PM CEST
Civil Twilight 5:44 AM CEST 9:28 PM CEST
Nautical Twilight 4:58 AM CEST 10:14 PM CEST
Astronomical Twilight 4:05 AM CEST 11:08 PM CEST
Moon 5:56 AM CEST 8:09 PM CEST
Length of Visible Light 15h 44m
Length of Day
14h 31m
Waning Crescent, 1% of the Moon is Illuminated
Apr 28
Waning Crescent
Apr 29
New
May 7
First Quarter
May 14
Full
May 21
Last Quarter

Hourly Weather History & Observations

Time (CEST) Temp. Dew Point Humidity Pressure Visibility Wind Dir Wind Speed Gust Speed Precip Events Conditions
12:00 AM 45 °F 41 °F 79% 29.81 in 19 mi SSE 4.5 mph - -  
1:00 AM 44 °F 41 °F 85% 29.82 in 22 mi SE 6.7 mph - -  
2:00 AM 44 °F 41 °F 87% 29.83 in 16 mi SSE 2.2 mph - -  
3:00 AM 44 °F 41 °F 86% 29.82 in 19 mi SSE 2.2 mph - -  
4:00 AM 42 °F 40 °F 89% 29.83 in 15 mi SSE 2.2 mph - -  
5:00 AM 42 °F 40 °F 92% 29.83 in 11 mi SSE 2.2 mph - -  
6:00 AM 43 °F 41 °F 92% 29.82 in 10 mi SSE 2.2 mph - -  
7:00 AM 42 °F 40 °F 91% 29.84 in 7 mi East 4.5 mph - -   Partly Cloudy
8:00 AM 45 °F 43 °F 90% 29.84 in 9 mi SE 4.5 mph - -   Mostly Cloudy
9:00 AM 46 °F 43 °F 87% 29.84 in 11 mi SSE 4.5 mph - -   Partly Cloudy
10:00 AM 48 °F 44 °F 79% 29.85 in 16 mi SSE 4.5 mph - -   Overcast
11:00 AM 49 °F 42 °F 68% 29.85 in 14 mi South 4.5 mph - -   Mostly Cloudy
12:00 PM 52 °F 41 °F 57% 29.85 in 19 mi 4.5 mph - -   Mostly Cloudy
1:00 PM 54 °F 42 °F 53% 29.84 in 19 mi SSW 4.5 mph - -   Mostly Cloudy
2:00 PM 54 °F 40 °F 49% 29.84 in 19 mi 2.2 mph - -   Overcast
3:00 PM 55 °F 41 °F 48% 29.85 in 22 mi 2.2 mph - -   Partly Cloudy
4:00 PM 55 °F 39 °F 43% 29.84 in 22 mi 2.2 mph - -   Partly Cloudy
5:00 PM 53 °F 41 °F 54% 29.86 in 25 mi West 4.5 mph - -   Overcast
6:00 PM 50 °F 45 °F 78% 29.88 in 9 mi NW 4.5 mph - - Rain Drizzle
7:00 PM 49 °F 46 °F 84% 29.89 in 14 mi WNW 2.2 mph - - Rain Drizzle
8:00 PM 49 °F 46 °F 84% 29.90 in 25 mi WSW 2.2 mph - - Rain Drizzle
9:00 PM 48 °F 44 °F 83% 29.91 in 25 mi WNW 2.2 mph - -   Clear
10:00 PM 49 °F 45 °F 82% 29.93 in 16 mi NE 2.2 mph - - Rain Drizzle
11:00 PM 46 °F 45 °F 96% 29.94 in 16 mi NE 2.2 mph - - Rain Light Drizzle